Time,TemperatureF,DewpointF,PressureIn,WindDirection,WindDirectionDegrees,WindSpeedMPH,WindSpeedGustMPH,Humidity,HourlyPrecipIn,Conditions,Clouds,dailyrainin,SoftwareType,DateUTC
2013-02-03 00:03:00,28.0,26.0,30.08,SW,236,2.0,7.0,93,0.00,,,0.00,,2013-02-03 05:03:00,
2013-02-03 00:12:00,28.0,26.0,30.08,SW,236,2.0,7.0,93,0.00,,,0.00,,2013-02-03 05:12:00,
2013-02-03 00:22:00,29.0,27.0,30.07,SSW,212,0.0,7.0,93,0.00,,,0.00,,2013-02-03 05:22:00,
2013-02-03 00:32:00,29.0,27.0,30.07,SSW,212,0.0,7.0,93,0.00,,,0.00,,2013-02-03 05:32:00,
2013-02-03 00:42:00,29.0,27.0,30.07,SSW,212,0.0,7.0,93,0.00,,,0.00,,2013-02-03 05:42:00,
2013-02-03 00:52:00,29.0,27.0,30.05,WSW,255,0.0,4.0,93,0.00,,,0.00,,2013-02-03 05:52:00,
2013-02-03 01:02:00,29.0,27.0,30.05,WSW,255,0.0,4.0,93,0.00,,,0.00,,2013-02-03 06:02:00,
2013-02-03 01:11:00,29.0,27.0,30.05,WSW,255,0.0,4.0,93,0.00,,,0.00,,2013-02-03 06:11:00,
2013-02-03 01:21:00,29.0,27.0,30.02,WSW,250,0.0,3.0,93,0.00,,,0.00,,2013-02-03 06:21:00,
2013-02-03 01:32:00,29.0,27.0,30.02,WSW,250,0.0,3.0,93,0.00,,,0.00,,2013-02-03 06:32:00,
2013-02-03 01:42:00,29.0,27.0,30.02,WSW,250,0.0,3.0,93,0.00,,,0.00,,2013-02-03 06:42:00,
2013-02-03 01:52:00,29.0,27.0,30.01,West,262,0.0,0.0,93,0.00,,,0.00,,2013-02-03 06:52:00,
2013-02-03 02:02:00,29.0,27.0,30.01,West,262,0.0,0.0,93,0.00,,,0.00,,2013-02-03 07:02:00,
2013-02-03 02:11:00,29.0,27.0,30.01,West,262,0.0,0.0,93,0.00,,,0.00,,2013-02-03 07:11:00,
2013-02-03 02:21:00,31.0,30.0,30.00,West,262,0.0,0.0,95,0.00,,,0.00,,2013-02-03 07:21:00,
2013-02-03 02:32:00,31.0,30.0,30.00,West,262,0.0,0.0,95,0.00,,,0.00,,2013-02-03 07:32:00,
2013-02-03 02:42:00,31.0,30.0,30.00,West,262,0.0,0.0,95,0.00,,,0.00,,2013-02-03 07:42:00,
2013-02-03 02:52:00,29.0,27.0,29.99,West,262,0.0,1.0,93,0.00,,,0.00,,2013-02-03 07:52:00,
2013-02-03 03:02:00,29.0,27.0,29.99,West,262,0.0,1.0,93,0.00,,,0.00,,2013-02-03 08:02:00,
2013-02-03 03:11:00,29.0,27.0,29.99,West,262,0.0,1.0,93,0.00,,,0.00,,2013-02-03 08:11:00,
2013-02-03 03:22:00,28.0,26.0,29.97,West,262,0.0,0.0,93,0.00,,,0.00,,2013-02-03 08:22:00,
2013-02-03 03:32:00,28.0,26.0,29.97,West,262,0.0,0.0,93,0.00,,,0.00,,2013-02-03 08:32:00,
2013-02-03 03:42:00,28.0,26.0,29.97,West,262,0.0,0.0,93,0.00,,,0.00,,2013-02-03 08:42:00,
2013-02-03 03:52:00,29.0,27.0,29.96,West,261,0.0,0.0,94,0.00,,,0.00,,2013-02-03 08:52:00,
2013-02-03 04:03:00,29.0,27.0,29.96,West,261,0.0,0.0,94,0.00,,,0.00,,2013-02-03 09:03:00,
2013-02-03 04:11:00,29.0,27.0,29.96,West,261,0.0,0.0,94,0.00,,,0.00,,2013-02-03 09:11:00,
2013-02-03 04:22:00,29.0,27.0,29.94,West,262,0.0,0.0,93,0.00,,,0.00,,2013-02-03 09:22:00,
2013-02-03 04:32:00,29.0,27.0,29.94,West,262,0.0,0.0,93,0.00,,,0.00,,2013-02-03 09:32:00,
2013-02-03 04:42:00,29.0,27.0,29.94,West,262,0.0,0.0,93,0.00,,,0.00,,2013-02-03 09:42:00,
2013-02-03 04:52:00,29.0,27.0,29.94,NW,308,0.0,1.0,94,0.00,,,0.00,,2013-02-03 09:52:00,
2013-02-03 05:01:00,29.0,27.0,29.94,NW,308,0.0,1.0,94,0.00,,,0.00,,2013-02-03 10:01:00,
2013-02-03 05:11:00,29.0,27.0,29.94,NW,308,0.0,1.0,94,0.00,,,0.00,,2013-02-03 10:11:00,
2013-02-03 05:21:00,29.0,27.0,29.94,NW,321,2.0,6.0,94,0.00,,,0.00,,2013-02-03 10:21:00,
2013-02-03 05:32:00,29.0,27.0,29.94,NW,321,2.0,6.0,94,0.00,,,0.00,,2013-02-03 10:32:00,
2013-02-03 05:42:00,29.0,27.0,29.94,NW,321,2.0,6.0,94,0.00,,,0.00,,2013-02-03 10:42:00,
2013-02-03 05:53:00,29.0,27.0,29.95,North,349,3.0,7.0,92,0.00,,,0.00,,2013-02-03 10:53:00,
2013-02-03 06:02:00,29.0,27.0,29.95,North,349,3.0,7.0,92,0.00,,,0.00,,2013-02-03 11:02:00,
2013-02-03 06:11:00,29.0,27.0,29.95,North,349,3.0,7.0,92,0.00,,,0.00,,2013-02-03 11:11:00,
2013-02-03 06:22:00,29.0,27.0,29.94,NNW,347,3.0,4.0,92,0.00,,,0.00,,2013-02-03 11:22:00,
2013-02-03 06:32:00,29.0,27.0,29.94,NNW,347,3.0,4.0,92,0.00,,,0.00,,2013-02-03 11:32:00,
2013-02-03 06:42:00,29.0,27.0,29.94,NNW,347,3.0,4.0,92,0.00,,,0.00,,2013-02-03 11:42:00,
2013-02-03 06:52:00,28.0,26.0,29.95,North,360,2.0,5.0,93,0.00,,,0.00,,2013-02-03 11:52:00,
2013-02-03 07:02:00,28.0,26.0,29.95,North,360,2.0,5.0,93,0.00,,,0.00,,2013-02-03 12:02:00,
2013-02-03 07:12:00,28.0,26.0,29.95,North,360,2.0,5.0,93,0.00,,,0.00,,2013-02-03 12:12:00,
2013-02-03 07:22:00,28.0,27.0,29.95,NNW,347,3.0,7.0,94,0.00,,,0.00,,2013-02-03 12:22:00,
2013-02-03 07:32:00,28.0,27.0,29.95,NNW,347,3.0,7.0,94,0.00,,,0.00,,2013-02-03 12:32:00,
2013-02-03 07:42:00,28.0,27.0,29.95,NNW,347,3.0,7.0,94,0.00,,,0.00,,2013-02-03 12:42:00,
2013-02-03 07:53:00,28.0,27.0,29.95,North,8,2.0,7.0,94,0.00,,,0.00,,2013-02-03 12:53:00,
2013-02-03 08:03:00,28.0,27.0,29.95,North,8,2.0,7.0,94,0.00,,,0.00,,2013-02-03 13:03:00,
2013-02-03 08:11:00,28.0,27.0,29.95,North,8,2.0,7.0,94,0.00,,,0.00,,2013-02-03 13:11:00,
2013-02-03 08:22:00,27.0,26.0,29.95,North,349,2.0,6.0,94,0.00,,,0.00,,2013-02-03 13:22:00,
2013-02-03 08:32:00,27.0,26.0,29.95,North,349,2.0,6.0,94,0.00,,,0.00,,2013-02-03 13:32:00,
2013-02-03 08:42:00,27.0,26.0,29.95,North,349,2.0,6.0,94,0.00,,,0.00,,2013-02-03 13:42:00,
2013-02-03 08:52:00,27.0,25.0,29.95,North,11,3.0,7.0,93,0.00,,,0.00,,2013-02-03 13:52:00,
2013-02-03 09:02:00,27.0,25.0,29.95,North,11,3.0,7.0,93,0.00,,,0.00,,2013-02-03 14:02:00,
2013-02-03 09:12:00,27.0,25.0,29.95,North,11,3.0,7.0,93,0.00,,,0.00,,2013-02-03 14:12:00,
2013-02-03 09:22:00,28.0,26.0,29.94,North,1,7.0,7.0,92,0.00,,,0.00,,2013-02-03 14:22:00,
2013-02-03 09:32:00,28.0,26.0,29.94,North,1,7.0,7.0,92,0.00,,,0.00,,2013-02-03 14:32:00,
2013-02-03 09:42:00,28.0,26.0,29.94,North,1,7.0,7.0,92,0.00,,,0.00,,2013-02-03 14:42:00,
2013-02-03 09:52:00,28.0,25.0,29.93,NNW,335,4.0,10.0,90,0.00,,,0.00,,2013-02-03 14:52:00,
2013-02-03 10:02:00,28.0,25.0,29.93,North,350,5.0,12.0,88,0.00,,,0.00,,2013-02-03 15:02:00,
2013-02-03 10:03:00,28.0,25.0,29.93,NNW,335,4.0,10.0,90,0.00,,,0.00,,2013-02-03 15:03:00,
2013-02-03 10:12:00,28.0,25.0,29.93,NNW,335,4.0,10.0,90,0.00,,,0.00,,2013-02-03 15:12:00,
2013-02-03 10:22:00,28.0,25.0,29.93,North,350,5.0,12.0,88,0.00,,,0.00,,2013-02-03 15:22:00,
2013-02-03 10:33:00,28.0,25.0,29.93,North,350,5.0,12.0,88,0.00,,,0.00,,2013-02-03 15:33:00,
2013-02-03 10:42:00,28.0,25.0,29.93,North,350,5.0,12.0,88,0.00,,,0.00,,2013-02-03 15:42:00,
2013-02-03 10:52:00,28.0,25.0,29.93,North,350,5.0,12.0,88,0.00,,,0.00,,2013-02-03 15:52:00,
2013-02-03 11:22:00,29.0,25.0,29.91,North,7,7.0,11.0,84,0.00,,,0.00,,2013-02-03 16:22:00,
2013-02-03 11:33:00,29.0,25.0,29.91,North,7,7.0,11.0,84,0.00,,,0.00,,2013-02-03 16:33:00,
2013-02-03 11:42:00,29.0,25.0,29.91,North,7,7.0,11.0,84,0.00,,,0.00,,2013-02-03 16:42:00,
2013-02-03 11:52:00,30.0,26.0,29.90,NNW,333,5.0,10.0,85,0.00,,,0.00,,2013-02-03 16:52:00,
2013-02-03 12:02:00,30.0,26.0,29.90,NNW,333,5.0,10.0,85,0.00,,,0.00,,2013-02-03 17:02:00,
2013-02-03 12:11:00,30.0,26.0,29.90,NNW,333,5.0,10.0,85,0.00,,,0.00,,2013-02-03 17:11:00,
2013-02-03 12:22:00,31.0,26.0,29.88,NNW,345,3.0,8.0,81,0.00,,,0.00,,2013-02-03 17:22:00,
2013-02-03 12:32:00,31.0,26.0,29.88,NNW,345,3.0,8.0,81,0.00,,,0.00,,2013-02-03 17:32:00,
2013-02-03 12:42:00,31.0,26.0,29.88,NNW,345,3.0,8.0,81,0.00,,,0.00,,2013-02-03 17:42:00,
2013-02-03 12:52:00,33.0,27.0,29.86,NNW,336,2.0,8.0,79,0.00,,,0.00,,2013-02-03 17:52:00,
2013-02-03 13:03:00,33.0,27.0,29.86,NNW,336,2.0,8.0,79,0.00,,,0.00,,2013-02-03 18:03:00,
2013-02-03 13:12:00,33.0,27.0,29.86,NNW,336,2.0,8.0,79,0.00,,,0.00,,2013-02-03 18:12:00,
2013-02-03 13:23:00,34.0,27.0,29.85,NW,316,3.0,6.0,74,0.01,,,0.01,,2013-02-03 18:23:00,
2013-02-03 13:33:00,34.0,27.0,29.85,NW,316,3.0,6.0,74,0.01,,,0.01,,2013-02-03 18:33:00,
2013-02-03 13:42:00,34.0,27.0,29.85,NW,316,3.0,6.0,74,0.01,,,0.01,,2013-02-03 18:42:00,
2013-02-03 13:52:00,34.0,27.0,29.83,NNW,347,3.0,7.0,74,0.02,,,0.02,,2013-02-03 18:52:00,
2013-02-03 14:02:00,34.0,27.0,29.83,NNW,347,3.0,7.0,74,0.02,,,0.02,,2013-02-03 19:02:00,
2013-02-03 14:11:00,34.0,27.0,29.83,NNW,347,3.0,7.0,74,0.02,,,0.02,,2013-02-03 19:11:00,
2013-02-03 14:22:00,36.0,25.0,29.83,North,356,3.0,6.0,63,0.01,,,0.02,,2013-02-03 19:22:00,
2013-02-03 14:32:00,36.0,25.0,29.83,North,356,3.0,6.0,63,0.01,,,0.02,,2013-02-03 19:32:00,
2013-02-03 14:42:00,36.0,25.0,29.83,North,356,3.0,6.0,63,0.01,,,0.02,,2013-02-03 19:42:00,
2013-02-03 14:52:00,37.0,24.0,29.82,NW,309,2.0,8.0,59,0.00,,,0.02,,2013-02-03 19:52:00,
2013-02-03 15:02:00,37.0,24.0,29.82,NW,309,2.0,8.0,59,0.00,,,0.02,,2013-02-03 20:02:00,
2013-02-03 15:12:00,37.0,24.0,29.82,NW,309,2.0,8.0,59,0.00,,,0.02,,2013-02-03 20:12:00,
2013-02-03 15:22:00,36.0,27.0,29.82,NW,312,3.0,13.0,70,0.00,,,0.02,,2013-02-03 20:22:00,
2013-02-03 15:33:00,36.0,27.0,29.82,NW,312,3.0,13.0,70,0.00,,,0.02,,2013-02-03 20:33:00,
2013-02-03 15:42:00,36.0,27.0,29.82,NW,312,3.0,13.0,70,0.00,,,0.02,,2013-02-03 20:42:00,
2013-02-03 15:52:00,35.0,27.0,29.82,WSW,248,9.0,12.0,71,0.00,,,0.02,,2013-02-03 20:52:00,
2013-02-03 16:03:00,35.0,27.0,29.82,WSW,248,9.0,12.0,71,0.00,,,0.02,,2013-02-03 21:03:00,
2013-02-03 16:11:00,35.0,27.0,29.82,WSW,248,9.0,12.0,71,0.00,,,0.02,,2013-02-03 21:11:00,
2013-02-03 16:21:00,35.0,27.0,29.83,West,266,3.0,13.0,71,0.00,,,0.02,,2013-02-03 21:21:00,
2013-02-03 16:32:00,35.0,27.0,29.83,West,266,3.0,13.0,71,0.00,,,0.02,,2013-02-03 21:32:00,
2013-02-03 16:42:00,35.0,27.0,29.83,West,266,3.0,13.0,71,0.00,,,0.02,,2013-02-03 21:42:00,
2013-02-03 16:52:00,34.0,26.0,29.83,West,277,8.0,13.0,73,0.00,,,0.02,,2013-02-03 21:52:00,
2013-02-03 17:02:00,34.0,26.0,29.83,West,277,8.0,13.0,73,0.00,,,0.02,,2013-02-03 22:02:00,
2013-02-03 17:11:00,34.0,26.0,29.83,West,277,8.0,13.0,73,0.00,,,0.02,,2013-02-03 22:11:00,
2013-02-03 17:21:00,34.0,26.0,29.83,West,266,2.0,13.0,73,0.00,,,0.02,,2013-02-03 22:21:00,
2013-02-03 17:32:00,34.0,26.0,29.83,West,266,2.0,13.0,73,0.00,,,0.02,,2013-02-03 22:32:00,
2013-02-03 17:42:00,34.0,26.0,29.83,West,266,2.0,13.0,73,0.00,,,0.02,,2013-02-03 22:42:00,
2013-02-03 17:52:00,32.0,25.0,29.84,West,277,5.0,11.0,74,0.00,,,0.02,,2013-02-03 22:52:00,
2013-02-03 18:01:00,32.0,25.0,29.84,West,277,5.0,11.0,74,0.00,,,0.02,,2013-02-03 23:01:00,
2013-02-03 18:12:00,32.0,25.0,29.84,West,277,5.0,11.0,74,0.00,,,0.02,,2013-02-03 23:12:00,
2013-02-03 18:22:00,31.0,25.0,29.85,WSW,250,3.0,10.0,77,0.00,,,0.02,,2013-02-03 23:22:00,
2013-02-03 18:32:00,31.0,25.0,29.85,WSW,250,3.0,10.0,77,0.00,,,0.02,,2013-02-03 23:32:00,
2013-02-03 18:42:00,31.0,25.0,29.85,WSW,250,3.0,10.0,77,0.00,,,0.02,,2013-02-03 23:42:00,
2013-02-03 18:52:00,30.0,24.0,29.85,West,260,2.0,5.0,79,0.00,,,0.02,,2013-02-03 23:52:00,
2013-02-03 19:02:00,30.0,24.0,29.85,West,260,2.0,5.0,79,0.00,,,0.02,,2013-02-04 00:02:00,
2013-02-03 19:11:00,30.0,24.0,29.85,West,260,2.0,5.0,79,0.00,,,0.02,,2013-02-04 00:11:00,
2013-02-03 19:22:00,30.0,25.0,29.86,West,266,1.0,5.0,81,0.00,,,0.02,,2013-02-04 00:22:00,
2013-02-03 19:32:00,30.0,25.0,29.86,West,266,1.0,5.0,81,0.00,,,0.02,,2013-02-04 00:32:00,
2013-02-03 19:42:00,30.0,25.0,29.86,West,266,1.0,5.0,81,0.00,,,0.02,,2013-02-04 00:42:00,
2013-02-03 19:52:00,30.0,25.0,29.87,WSW,257,2.0,4.0,82,0.00,,,0.02,,2013-02-04 00:52:00,
2013-02-03 20:01:00,30.0,25.0,29.87,WSW,257,2.0,4.0,82,0.00,,,0.02,,2013-02-04 01:01:00,
2013-02-03 20:11:00,30.0,25.0,29.87,WSW,257,2.0,4.0,82,0.00,,,0.02,,2013-02-04 01:11:00,
2013-02-03 20:21:00,30.0,25.0,29.86,WSW,252,1.0,4.0,83,0.00,,,0.02,,2013-02-04 01:21:00,
2013-02-03 20:32:00,30.0,25.0,29.86,WSW,252,1.0,4.0,83,0.00,,,0.02,,2013-02-04 01:32:00,
2013-02-03 20:42:00,30.0,25.0,29.86,WSW,252,1.0,4.0,83,0.00,,,0.02,,2013-02-04 01:42:00,
2013-02-03 20:52:00,29.0,25.0,29.87,WSW,251,2.0,4.0,85,0.00,,,0.02,,2013-02-04 01:52:00,
2013-02-03 21:02:00,29.0,25.0,29.87,WSW,251,2.0,4.0,85,0.00,,,0.02,,2013-02-04 02:02:00,
2013-02-03 21:11:00,29.0,25.0,29.87,WSW,251,2.0,4.0,85,0.00,,,0.02,,2013-02-04 02:11:00,
2013-02-03 21:21:00,29.0,26.0,29.88,West,266,2.0,4.0,88,0.00,,,0.02,,2013-02-04 02:21:00,
2013-02-03 21:32:00,29.0,26.0,29.88,West,266,2.0,4.0,88,0.00,,,0.02,,2013-02-04 02:32:00,
2013-02-03 21:42:00,29.0,26.0,29.88,West,266,2.0,4.0,88,0.00,,,0.02,,2013-02-04 02:42:00,
2013-02-03 21:52:00,29.0,26.0,29.87,WSW,257,1.0,5.0,88,0.00,,,0.02,,2013-02-04 02:52:00,
2013-02-03 22:02:00,29.0,26.0,29.87,WSW,257,1.0,5.0,88,0.00,,,0.02,,2013-02-04 03:02:00,
2013-02-03 22:11:00,29.0,26.0,29.87,WSW,257,1.0,5.0,88,0.00,,,0.02,,2013-02-04 03:11:00,
2013-02-03 22:21:00,30.0,26.0,29.88,WSW,256,2.0,4.0,85,0.00,,,0.02,,2013-02-04 03:21:00,
2013-02-03 22:32:00,30.0,26.0,29.88,WSW,256,2.0,4.0,85,0.00,,,0.02,,2013-02-04 03:32:00,
2013-02-03 22:42:00,30.0,26.0,29.88,WSW,256,2.0,4.0,85,0.00,,,0.02,,2013-02-04 03:42:00,
2013-02-03 22:52:00,30.0,26.0,29.88,West,262,4.0,5.0,86,0.00,,,0.02,,2013-02-04 03:52:00,
2013-02-03 23:01:00,30.0,26.0,29.88,West,262,4.0,5.0,86,0.00,,,0.02,,2013-02-04 04:01:00,
2013-02-03 23:11:00,30.0,26.0,29.88,West,262,4.0,5.0,86,0.00,,,0.02,,2013-02-04 04:11:00,
2013-02-03 23:21:00,31.0,27.0,29.88,SW,226,2.0,6.0,86,0.00,,,0.02,,2013-02-04 04:21:00,
2013-02-03 23:32:00,31.0,27.0,29.88,SW,226,2.0,6.0,86,0.00,,,0.02,,2013-02-04 04:32:00,
2013-02-03 23:42:00,31.0,27.0,29.88,SW,226,2.0,6.0,86,0.00,,,0.02,,2013-02-04 04:42:00,
2013-02-03 23:52:00,31.0,27.0,29.88,SW,226,2.0,6.0,86,0.00,,,0.02,,2013-02-04 04:52:00,